Home   Weather   Portsmouth   Past weeks

Flag for USA Past Weather in Portsmouth, Virginia, USA — Yesterday and Last 2 Weeks

Now
71 °F

Thunderstorms. Fog.


Feels Like: 69 °F
Forecast: 70 / 85 °F
Wind: 9 mph from Southwest

Location: Norfolk Naval Air Station

Current Time: Apr 28, 2017 at 6:35:59 am

Latest Report: Apr 28, 2017 at 6:21 am


Visibility: 1 mi

Pressure: 30.01 "Hg

Humidity: 87%

Dew Point: 67 °F

Location of PortsmouthLocation

Past Weather in Portsmouth — Graph

°F

Portsmouth Temperature Yesterday

Maximum temperature yesterday: 84 °F (at 2:59 pm)
Minimum temperature yesterday: 64 °F (at 12:59 am)
Average temperature yesterday: 74 °F

High & Low Weather Summary for the Past Weeks

 TemperatureHumidityPressure
High88 °F (Apr 21, 1:59 pm)97% (Apr 25, 7:41 am)30.43 "Hg (Apr 25, 7:41 am)
Low44 °F (Apr 14, 4:59 am)27% (Apr 16, 5:59 pm)29.61 "Hg (Apr 25, 3:59 pm)
Average65 °F73%30.04 "Hg
* Reported Apr 13 5:59 am — Apr 28 5:36 am, Portsmouth, Weather by CustomWeather, © 2017

Note: Actual official high and low records may vary slightly from our data, if they occured in-between our weather recording intervals... More about our weather records

Advertising

Portsmouth Weather History for the Previous 24 Hours

Scroll right to see more
 ConditionsComfort  
Time TempWeatherWind HumidityBarometerVisibility
5:36 am
Fri, Apr 28
72 °FThunderstorms. Mostly cloudy.8 mph78%29.99 "Hg7 mi
4:59 am72 °FPassing clouds.8 mph76%29.96 "Hg10 mi
3:59 am72 °FPassing clouds.9 mph76%29.95 "Hg10 mi
2:59 am72 °FPassing clouds.8 mph73%29.94 "Hg10 mi
1:59 am73 °FPassing clouds.7 mph71%29.93 "Hg10 mi
12:59 am73 °FPassing clouds.10 mph71%29.94 "Hg10 mi
11:59 pm
Thu, Apr 27
73 °FMostly cloudy.10 mph69%29.93 "Hg10 mi
10:59 pm74 °FPassing clouds.10 mph64%29.91 "Hg10 mi
9:59 pm75 °FPassing clouds.10 mph62%29.90 "Hg10 mi
8:59 pm75 °FPassing clouds.6 mph55%29.87 "Hg9 mi
7:59 pm78 °FPassing clouds.8 mph50%29.86 "Hg9 mi
6:59 pm80 °FPartly sunny.7 mph45%29.85 "Hg9 mi
5:59 pm83 °FScattered clouds.12 mph41%29.85 "Hg9 mi
4:59 pm82 °FBroken clouds.10 mph43%29.84 "Hg10 mi
3:59 pm84 °FScattered clouds.15 mph40%29.84 "Hg10 mi
2:59 pm84 °FScattered clouds.15 mph36%29.85 "Hg10 mi
1:59 pm83 °FScattered clouds.12 mph41%29.86 "Hg10 mi
12:59 pm82 °FScattered clouds.12 mph43%29.88 "Hg10 mi
11:59 am81 °FScattered clouds.15 mph44%29.91 "Hg10 mi
10:59 am78 °FScattered clouds.13 mph52%29.92 "Hg10 mi
9:59 am75 °FScattered clouds.9 mph62%29.92 "Hg10 mi
8:59 am71 °FScattered clouds.10 mph73%29.91 "Hg10 mi
7:59 am68 °FPassing clouds.10 mph78%29.90 "Hg10 mi
6:59 am66 °FScattered clouds.9 mph84%29.89 "Hg9 mi
Weather by CustomWeather, © 2017

See weather overviewHow to use our weather pages